owner,sensor,date,latitude,longitude,vertical_datum,sea_water_practical_salinity,qcFlag 
TABS,ioos:station:wmo:42050:1,2016-03-01T00:00:00Z,28.8425,-94.2433,2.0,32.1212,11111222 
TABS,ioos:station:wmo:42050:1,2016-03-01T00:30:00Z,28.8425,-94.2433,2.0,32.1141,11111222 
TABS,ioos:station:wmo:42050:1,2016-03-01T01:00:00Z,28.8425,-94.2433,2.0,32.129,11111222 
TABS,ioos:station:wmo:42050:1,2016-03-01T01:30:00Z,28.8425,-94.2433,2.0,32.1549,11111222 
TABS,ioos:station:wmo:42050:1,2016-03-01T02:00:00Z,28.8425,-94.2433,2.0,32.1445,11111222 
TABS,ioos:station:wmo:42050:1,2016-03-01T02:30:00Z,28.8425,-94.2433,2.0,32.183,11111222 
TABS,ioos:station:wmo:42050:1,2016-03-01T03:00:00Z,28.8425,-94.2433,2.0,32.3744,11111222 
TABS,ioos:station:wmo:42050:1,2016-03-01T03:30:00Z,28.8425,-94.2433,2.0,32.2325,11111222 
TABS,ioos:station:wmo:42050:1,2016-03-01T04:00:00Z,28.8425,-94.2433,2.0,32.26,11111222 
TABS,ioos:station:wmo:42050:1,2016-03-01T04:30:00Z,28.8425,-94.2433,2.0,32.2426,11111222 
TABS,ioos:station:wmo:42050:1,2016-03-01T05:00:00Z,28.8425,-94.2433,2.0,32.4759,11111222 
TABS,ioos:station:wmo:42050:1,2016-03-01T05:30:00Z,28.8425,-94.2433,2.0,32.5967,11111222 
TABS,ioos:station:wmo:42050:1,2016-03-01T06:00:00Z,28.8425,-94.2433,2.0,32.4165,11111222 
TABS,ioos:station:wmo:42050:1,2016-03-01T06:30:00Z,28.8425,-94.2433,2.0,32.5231,11111222 
TABS,ioos:station:wmo:42050:1,2016-03-01T07:00:00Z,28.8425,-94.2433,2.0,32.6001,11111222 
TABS,ioos:station:wmo:42050:1,2016-03-01T07:30:00Z,28.8425,-94.2433,2.0,32.4298,11111222 
TABS,ioos:station:wmo:42050:1,2016-03-01T08:00:00Z,28.8425,-94.2433,2.0,32.392,11111222 
TABS,ioos:station:wmo:42050:1,2016-03-01T08:30:00Z,28.8425,-94.2433,2.0,32.3813,11111222 
TABS,ioos:station:wmo:42050:1,2016-03-01T09:00:00Z,28.8425,-94.2433,2.0,32.3675,11111222 
TABS,ioos:station:wmo:42050:1,2016-03-01T09:30:00Z,28.8425,-94.2433,2.0,32.4117,11111222 
TABS,ioos:station:wmo:42050:1,2016-03-01T10:00:00Z,28.8425,-94.2433,2.0,32.5299,11111222 
TABS,ioos:station:wmo:42050:1,2016-03-01T10:30:00Z,28.8425,-94.2433,2.0,32.6181,11111222 
TABS,ioos:station:wmo:42050:1,2016-03-01T11:00:00Z,28.8425,-94.2433,2.0,32.7118,11111222 
TABS,ioos:station:wmo:42050:1,2016-03-01T11:30:00Z,28.8425,-94.2433,2.0,32.7506,11111222 
TABS,ioos:station:wmo:42050:1,2016-03-01T12:00:00Z,28.8425,-94.2433,2.0,32.8879,11111222 
TABS,ioos:station:wmo:42050:1,2016-03-01T12:30:00Z,28.8425,-94.2433,2.0,32.9749,11111222 
TABS,ioos:station:wmo:42050:1,2016-03-01T13:00:00Z,28.8425,-94.2433,2.0,32.7805,11111222 
TABS,ioos:station:wmo:42050:1,2016-03-01T13:30:00Z,28.8425,-94.2433,2.0,32.8288,11111222 
TABS,ioos:station:wmo:42050:1,2016-03-01T14:00:00Z,28.8425,-94.2433,2.0,32.9911,11111222 
TABS,ioos:station:wmo:42050:1,2016-03-01T14:30:00Z,28.8425,-94.2433,2.0,32.913,11111222 
TABS,ioos:station:wmo:42050:1,2016-03-01T15:00:00Z,28.8425,-94.2433,2.0,32.5964,11111222 
TABS,ioos:station:wmo:42050:1,2016-03-01T15:30:00Z,28.8425,-94.2433,2.0,32.6765,11111222 
TABS,ioos:station:wmo:42050:1,2016-03-01T16:00:00Z,28.8425,-94.2433,2.0,32.5447,11111222 
TABS,ioos:station:wmo:42050:1,2016-03-01T16:30:00Z,28.8425,-94.2433,2.0,32.4672,11111222 
TABS,ioos:station:wmo:42050:1,2016-03-01T17:00:00Z,28.8425,-94.2433,2.0,32.5356,11111222 
TABS,ioos:station:wmo:42050:1,2016-03-01T17:30:00Z,28.8425,-94.2433,2.0,32.3973,11111222 
TABS,ioos:station:wmo:42050:1,2016-03-01T18:00:00Z,28.8425,-94.2433,2.0,32.4263,11111222 
TABS,ioos:station:wmo:42050:1,2016-03-01T18:30:00Z,28.8425,-94.2433,2.0,32.3667,11111222 
TABS,ioos:station:wmo:42050:1,2016-03-01T19:00:00Z,28.8425,-94.2433,2.0,32.411,11111222 
TABS,ioos:station:wmo:42050:1,2016-03-01T19:30:00Z,28.8425,-94.2433,2.0,32.3491,11111222 
TABS,ioos:station:wmo:42050:1,2016-03-01T20:00:00Z,28.8425,-94.2433,2.0,32.3461,11111222 
TABS,ioos:station:wmo:42050:1,2016-03-01T20:30:00Z,28.8425,-94.2433,2.0,32.4452,11111222 
TABS,ioos:station:wmo:42050:1,2016-03-01T21:00:00Z,28.8425,-94.2433,2.0,32.3375,11111222 
TABS,ioos:station:wmo:42050:1,2016-03-01T21:30:00Z,28.8425,-94.2433,2.0,32.276,11111222 
TABS,ioos:station:wmo:42050:1,2016-03-01T22:00:00Z,28.8425,-94.2433,2.0,32.2185,11111222 
TABS,ioos:station:wmo:42050:1,2016-03-01T22:30:00Z,28.8425,-94.2433,2.0,32.9751,11111222 
TABS,ioos:station:wmo:42050:1,2016-03-01T23:00:00Z,28.8425,-94.2433,2.0,33.1057,11111222 
TABS,ioos:station:wmo:42050:1,2016-03-01T23:30:00Z,28.8425,-94.2433,2.0,32.6402,11111222 
TABS,ioos:station:wmo:42050:1,2016-03-02T00:00:00Z,28.8425,-94.2433,2.0,32.9677,11111222 
TABS,ioos:station:wmo:42050:1,2016-03-02T00:30:00Z,28.8425,-94.2433,2.0,32.4926,11111222 
TABS,ioos:station:wmo:42050:1,2016-03-02T01:00:00Z,28.8425,-94.2433,2.0,33.2244,11111222 
TABS,ioos:station:wmo:42050:1,2016-03-02T01:30:00Z,28.8425,-94.2433,2.0,33.1515,11111222 
TABS,ioos:station:wmo:42050:1,2016-03-02T02:00:00Z,28.8425,-94.2433,2.0,32.8528,11111222 
TABS,ioos:station:wmo:42050:1,2016-03-02T02:30:00Z,28.8425,-94.2433,2.0,32.7706,11111222 
TABS,ioos:station:wmo:42050:1,2016-03-02T03:00:00Z,28.8425,-94.2433,2.0,32.9985,11111222 
TABS,ioos:station:wmo:42050:1,2016-03-02T03:30:00Z,28.8425,-94.2433,2.0,32.8042,11111222 
TABS,ioos:station:wmo:42050:1,2016-03-02T04:00:00Z,28.8425,-94.2433,2.0,32.6714,11111222 
TABS,ioos:station:wmo:42050:1,2016-03-02T04:30:00Z,28.8425,-94.2433,2.0,33.1532,11111222 
TABS,ioos:station:wmo:42050:1,2016-03-02T05:00:00Z,28.8425,-94.2433,2.0,32.5363,11111222 
TABS,ioos:station:wmo:42050:1,2016-03-02T05:30:00Z,28.8425,-94.2433,2.0,32.9007,11111222 
TABS,ioos:station:wmo:42050:1,2016-03-02T06:00:00Z,28.8425,-94.2433,2.0,32.834,11111222 
TABS,ioos:station:wmo:42050:1,2016-03-02T06:30:00Z,28.8425,-94.2433,2.0,32.8908,11111222 
TABS,ioos:station:wmo:42050:1,2016-03-02T07:00:00Z,28.8425,-94.2433,2.0,33.2022,11111222 
TABS,ioos:station:wmo:42050:1,2016-03-02T07:30:00Z,28.8425,-94.2433,2.0,33.1567,11111222 
TABS,ioos:station:wmo:42050:1,2016-03-02T08:00:00Z,28.8425,-94.2433,2.0,32.9502,11111222 
TABS,ioos:station:wmo:42050:1,2016-03-02T08:30:00Z,28.8425,-94.2433,2.0,32.933,11111222 
TABS,ioos:station:wmo:42050:1,2016-03-02T09:00:00Z,28.8425,-94.2433,2.0,32.9109,11111222 
TABS,ioos:station:wmo:42050:1,2016-03-02T09:30:00Z,28.8425,-94.2433,2.0,33.1368,11111222 
TABS,ioos:station:wmo:42050:1,2016-03-02T10:00:00Z,28.8425,-94.2433,2.0,33.1385,11111222 
TABS,ioos:station:wmo:42050:1,2016-03-02T10:30:00Z,28.8425,-94.2433,2.0,33.2991,11111222 
TABS,ioos:station:wmo:42050:1,2016-03-02T11:00:00Z,28.8425,-94.2433,2.0,33.3639,11111222 
TABS,ioos:station:wmo:42050:1,2016-03-02T11:30:00Z,28.8425,-94.2433,2.0,33.4423,11111222 
TABS,ioos:station:wmo:42050:1,2016-03-02T12:00:00Z,28.8425,-94.2433,2.0,33.4931,11111222 
TABS,ioos:station:wmo:42050:1,2016-03-02T12:30:00Z,28.8425,-94.2433,2.0,33.535,11111222 
TABS,ioos:station:wmo:42050:1,2016-03-02T13:00:00Z,28.8425,-94.2433,2.0,33.5867,11111222 
TABS,ioos:station:wmo:42050:1,2016-03-02T13:30:00Z,28.8425,-94.2433,2.0,33.6627,11111222 
TABS,ioos:station:wmo:42050:1,2016-03-02T14:00:00Z,28.8425,-94.2433,2.0,33.6954,11111222 
TABS,ioos:station:wmo:42050:1,2016-03-02T14:30:00Z,28.8425,-94.2433,2.0,33.7386,11111222 
TABS,ioos:station:wmo:42050:1,2016-03-02T15:00:00Z,28.8425,-94.2433,2.0,33.7112,11111222 
TABS,ioos:station:wmo:42050:1,2016-03-02T15:30:00Z,28.8425,-94.2433,2.0,33.6608,11111222 
TABS,ioos:station:wmo:42050:1,2016-03-02T16:00:00Z,28.8425,-94.2433,2.0,33.6876,11111222 
TABS,ioos:station:wmo:42050:1,2016-03-02T16:30:00Z,28.8425,-94.2433,2.0,33.6656,11111222 
TABS,ioos:station:wmo:42050:1,2016-03-02T17:00:00Z,28.8425,-94.2433,2.0,33.5075,11111222 
TABS,ioos:station:wmo:42050:1,2016-03-02T17:30:00Z,28.8425,-94.2433,2.0,33.5127,11111222 
TABS,ioos:station:wmo:42050:1,2016-03-02T18:00:00Z,28.8425,-94.2433,2.0,33.5571,11111222 
TABS,ioos:station:wmo:42050:1,2016-03-02T18:30:00Z,28.8425,-94.2433,2.0,33.5623,11111222 
TABS,ioos:station:wmo:42050:1,2016-03-02T19:00:00Z,28.8425,-94.2433,2.0,33.6156,11111222 
TABS,ioos:station:wmo:42050:1,2016-03-02T19:30:00Z,28.8425,-94.2433,2.0,33.6519,11111222 
TABS,ioos:station:wmo:42050:1,2016-03-02T20:00:00Z,28.8425,-94.2433,2.0,33.6632,11111222 
TABS,ioos:station:wmo:42050:1,2016-03-02T20:30:00Z,28.8425,-94.2433,2.0,33.6847,11111222 
TABS,ioos:station:wmo:42050:1,2016-03-02T21:00:00Z,28.8425,-94.2433,2.0,33.707,11111222 
TABS,ioos:station:wmo:42050:1,2016-03-02T21:30:00Z,28.8425,-94.2433,2.0,33.7256,11111222 
TABS,ioos:station:wmo:42050:1,2016-03-02T22:00:00Z,28.8425,-94.2433,2.0,33.7476,11111222 
TABS,ioos:station:wmo:42050:1,2016-03-02T22:30:00Z,28.8425,-94.2433,2.0,33.784,11111222 
TABS,ioos:station:wmo:42050:1,2016-03-02T23:00:00Z,28.8425,-94.2433,2.0,33.8007,11111222 
TABS,ioos:station:wmo:42050:1,2016-03-02T23:30:00Z,28.8425,-94.2433,2.0,33.8082,11111222 
TABS,ioos:station:wmo:42050:1,2016-03-03T00:00:00Z,28.8425,-94.2433,2.0,33.8215,11111222 
TABS,ioos:station:wmo:42050:1,2016-03-03T00:30:00Z,28.8425,-94.2433,2.0,33.8408,11111222 
TABS,ioos:station:wmo:42050:1,2016-03-03T01:00:00Z,28.8425,-94.2433,2.0,33.8622,11111222 
TABS,ioos:station:wmo:42050:1,2016-03-03T01:30:00Z,28.8425,-94.2433,2.0,33.8833,11111222 
TABS,ioos:station:wmo:42050:1,2016-03-03T02:00:00Z,28.8425,-94.2433,2.0,33.923,11111222 
TABS,ioos:station:wmo:42050:1,2016-03-03T02:30:00Z,28.8425,-94.2433,2.0,33.932,11111222 
TABS,ioos:station:wmo:42050:1,2016-03-03T03:00:00Z,28.8425,-94.2433,2.0,33.9298,11111222 
TABS,ioos:station:wmo:42050:1,2016-03-03T03:30:00Z,28.8425,-94.2433,2.0,33.9089,11111222 
TABS,ioos:station:wmo:42050:1,2016-03-03T04:00:00Z,28.8425,-94.2433,2.0,33.8952,11111222 
TABS,ioos:station:wmo:42050:1,2016-03-03T04:30:00Z,28.8425,-94.2433,2.0,33.9571,11111222 
TABS,ioos:station:wmo:42050:1,2016-03-03T05:00:00Z,28.8425,-94.2433,2.0,33.9703,11111222 
TABS,ioos:station:wmo:42050:1,2016-03-03T05:30:00Z,28.8425,-94.2433,2.0,33.9464,11111222 
TABS,ioos:station:wmo:42050:1,2016-03-03T06:00:00Z,28.8425,-94.2433,2.0,33.914,11111222 
TABS,ioos:station:wmo:42050:1,2016-03-03T06:30:00Z,28.8425,-94.2433,2.0,33.9026,11111222 
TABS,ioos:station:wmo:42050:1,2016-03-03T07:00:00Z,28.8425,-94.2433,2.0,33.8298,11111222 
TABS,ioos:station:wmo:42050:1,2016-03-03T07:30:00Z,28.8425,-94.2433,2.0,33.8052,11111222 
TABS,ioos:station:wmo:42050:1,2016-03-03T08:00:00Z,28.8425,-94.2433,2.0,33.7708,11111222 
TABS,ioos:station:wmo:42050:1,2016-03-03T08:30:00Z,28.8425,-94.2433,2.0,33.7489,11111222 
TABS,ioos:station:wmo:42050:1,2016-03-03T09:00:00Z,28.8425,-94.2433,2.0,33.7264,11111222 
TABS,ioos:station:wmo:42050:1,2016-03-03T09:30:00Z,28.8425,-94.2433,2.0,33.7015,11111222 
TABS,ioos:station:wmo:42050:1,2016-03-03T10:00:00Z,28.8425,-94.2433,2.0,33.6981,11111222 
TABS,ioos:station:wmo:42050:1,2016-03-03T10:30:00Z,28.8425,-94.2433,2.0,33.6761,11111222 
TABS,ioos:station:wmo:42050:1,2016-03-03T11:00:00Z,28.8425,-94.2433,2.0,33.6608,11111222 
TABS,ioos:station:wmo:42050:1,2016-03-03T11:30:00Z,28.8425,-94.2433,2.0,33.653,11111222 
TABS,ioos:station:wmo:42050:1,2016-03-03T12:00:00Z,28.8425,-94.2433,2.0,33.644,11111222 
TABS,ioos:station:wmo:42050:1,2016-03-03T12:30:00Z,28.8425,-94.2433,2.0,33.6399,11111222 
TABS,ioos:station:wmo:42050:1,2016-03-03T13:00:00Z,28.8425,-94.2433,2.0,33.6313,11111222 
TABS,ioos:station:wmo:42050:1,2016-03-03T13:30:00Z,28.8425,-94.2433,2.0,33.6372,11111222 
TABS,ioos:station:wmo:42050:1,2016-03-03T14:00:00Z,28.8425,-94.2433,2.0,33.6432,11111222 
TABS,ioos:station:wmo:42050:1,2016-03-03T14:30:00Z,28.8425,-94.2433,2.0,33.6701,11111222 
TABS,ioos:station:wmo:42050:1,2016-03-03T15:00:00Z,28.8425,-94.2433,2.0,33.6644,11111222 
TABS,ioos:station:wmo:42050:1,2016-03-03T15:30:00Z,28.8425,-94.2433,2.0,33.6802,11111222 
TABS,ioos:station:wmo:42050:1,2016-03-03T16:00:00Z,28.8425,-94.2433,2.0,33.6939,11111222 
TABS,ioos:station:wmo:42050:1,2016-03-03T16:30:00Z,28.8425,-94.2433,2.0,33.6928,11111222 
TABS,ioos:station:wmo:42050:1,2016-03-03T17:00:00Z,28.8425,-94.2433,2.0,33.6976,11111222 
TABS,ioos:station:wmo:42050:1,2016-03-03T17:30:00Z,28.8425,-94.2433,2.0,33.6913,11111222 
TABS,ioos:station:wmo:42050:1,2016-03-03T18:00:00Z,28.8425,-94.2433,2.0,33.697,11111222 
TABS,ioos:station:wmo:42050:1,2016-03-03T18:30:00Z,28.8425,-94.2433,2.0,33.6896,11111222 
TABS,ioos:station:wmo:42050:1,2016-03-03T19:00:00Z,28.8425,-94.2433,2.0,33.6726,11111222 
TABS,ioos:station:wmo:42050:1,2016-03-03T19:30:00Z,28.8425,-94.2433,2.0,33.6735,11111222 
TABS,ioos:station:wmo:42050:1,2016-03-03T20:00:00Z,28.8425,-94.2433,2.0,33.6598,11111222 
TABS,ioos:station:wmo:42050:1,2016-03-03T20:30:00Z,28.8425,-94.2433,2.0,33.6602,11111222 
TABS,ioos:station:wmo:42050:1,2016-03-03T21:00:00Z,28.8425,-94.2433,2.0,33.6475,11111222 
TABS,ioos:station:wmo:42050:1,2016-03-03T21:30:00Z,28.8425,-94.2433,2.0,33.6539,11111222 
TABS,ioos:station:wmo:42050:1,2016-03-03T22:00:00Z,28.8425,-94.2433,2.0,33.6628,11111222 
TABS,ioos:station:wmo:42050:1,2016-03-03T22:30:00Z,28.8425,-94.2433,2.0,33.6838,11111222 
TABS,ioos:station:wmo:42050:1,2016-03-03T23:00:00Z,28.8425,-94.2433,2.0,33.6861,11111222 
TABS,ioos:station:wmo:42050:1,2016-03-03T23:30:00Z,28.8425,-94.2433,2.0,33.6933,11111222 
TABS,ioos:station:wmo:42050:1,2016-03-04T00:00:00Z,28.8425,-94.2433,2.0,33.7043,11111222 
TABS,ioos:station:wmo:42050:1,2016-03-04T00:30:00Z,28.8425,-94.2433,2.0,33.7152,11111222 
TABS,ioos:station:wmo:42050:1,2016-03-04T01:00:00Z,28.8425,-94.2433,2.0,33.7193,11111222 
TABS,ioos:station:wmo:42050:1,2016-03-04T01:30:00Z,28.8425,-94.2433,2.0,33.7264,11111222 
TABS,ioos:station:wmo:42050:1,2016-03-04T02:00:00Z,28.8425,-94.2433,2.0,33.7248,11111222 
TABS,ioos:station:wmo:42050:1,2016-03-04T02:30:00Z,28.8425,-94.2433,2.0,33.7295,11111222 
TABS,ioos:station:wmo:42050:1,2016-03-04T03:00:00Z,28.8425,-94.2433,2.0,33.7323,11111222 
TABS,ioos:station:wmo:42050:1,2016-03-04T03:30:00Z,28.8425,-94.2433,2.0,33.7316,11111222 
TABS,ioos:station:wmo:42050:1,2016-03-04T04:00:00Z,28.8425,-94.2433,2.0,33.7368,11111222 
TABS,ioos:station:wmo:42050:1,2016-03-04T04:30:00Z,28.8425,-94.2433,2.0,33.7315,11111222 
TABS,ioos:station:wmo:42050:1,2016-03-04T05:00:00Z,28.8425,-94.2433,2.0,33.7249,11111222 
TABS,ioos:station:wmo:42050:1,2016-03-04T05:30:00Z,28.8425,-94.2433,2.0,33.7162,11111222 
TABS,ioos:station:wmo:42050:1,2016-03-04T06:00:00Z,28.8425,-94.2433,2.0,33.7018,11111222 
TABS,ioos:station:wmo:42050:1,2016-03-04T06:30:00Z,28.8425,-94.2433,2.0,33.6873,11111222 
TABS,ioos:station:wmo:42050:1,2016-03-04T07:00:00Z,28.8425,-94.2433,2.0,33.6814,11111222 
TABS,ioos:station:wmo:42050:1,2016-03-04T07:30:00Z,28.8425,-94.2433,2.0,33.6798,11111222 
TABS,ioos:station:wmo:42050:1,2016-03-04T08:00:00Z,28.8425,-94.2433,2.0,33.6672,11111222 
TABS,ioos:station:wmo:42050:1,2016-03-04T08:30:00Z,28.8425,-94.2433,2.0,33.6565,11111222 
TABS,ioos:station:wmo:42050:1,2016-03-04T09:00:00Z,28.8425,-94.2433,2.0,33.6434,11111222 
TABS,ioos:station:wmo:42050:1,2016-03-04T09:30:00Z,28.8425,-94.2433,2.0,33.6412,11111222 
TABS,ioos:station:wmo:42050:1,2016-03-04T10:00:00Z,28.8425,-94.2433,2.0,33.6354,11111222 
TABS,ioos:station:wmo:42050:1,2016-03-04T10:30:00Z,28.8425,-94.2433,2.0,33.5561,11111222 
TABS,ioos:station:wmo:42050:1,2016-03-04T11:00:00Z,28.8425,-94.2433,2.0,33.5037,11111222 
TABS,ioos:station:wmo:42050:1,2016-03-04T11:30:00Z,28.8425,-94.2433,2.0,33.477,11111222 
TABS,ioos:station:wmo:42050:1,2016-03-04T12:00:00Z,28.8425,-94.2433,2.0,33.4514,11111222 
TABS,ioos:station:wmo:42050:1,2016-03-04T12:30:00Z,28.8425,-94.2433,2.0,33.4342,11111222 
TABS,ioos:station:wmo:42050:1,2016-03-04T13:00:00Z,28.8425,-94.2433,2.0,33.4072,11111222 
TABS,ioos:station:wmo:42050:1,2016-03-04T13:30:00Z,28.8425,-94.2433,2.0,33.3877,11111222 
TABS,ioos:station:wmo:42050:1,2016-03-04T14:00:00Z,28.8425,-94.2433,2.0,33.3628,11111222 
TABS,ioos:station:wmo:42050:1,2016-03-04T14:30:00Z,28.8425,-94.2433,2.0,33.3419,11111222 
TABS,ioos:station:wmo:42050:1,2016-03-04T15:00:00Z,28.8425,-94.2433,2.0,33.317,11111222 
TABS,ioos:station:wmo:42050:1,2016-03-04T15:30:00Z,28.8425,-94.2433,2.0,33.3052,11111222 
TABS,ioos:station:wmo:42050:1,2016-03-04T16:00:00Z,28.8425,-94.2433,2.0,33.2878,11111222 
TABS,ioos:station:wmo:42050:1,2016-03-04T16:30:00Z,28.8425,-94.2433,2.0,33.2826,11111222 
TABS,ioos:station:wmo:42050:1,2016-03-04T17:00:00Z,28.8425,-94.2433,2.0,33.2234,11111222 
TABS,ioos:station:wmo:42050:1,2016-03-04T17:30:00Z,28.8425,-94.2433,2.0,33.2273,11111222 
TABS,ioos:station:wmo:42050:1,2016-03-04T18:00:00Z,28.8425,-94.2433,2.0,33.1846,11111222 
TABS,ioos:station:wmo:42050:1,2016-03-04T18:30:00Z,28.8425,-94.2433,2.0,33.2292,11111222 
TABS,ioos:station:wmo:42050:1,2016-03-04T19:00:00Z,28.8425,-94.2433,2.0,33.2131,11111222 
TABS,ioos:station:wmo:42050:1,2016-03-04T19:30:00Z,28.8425,-94.2433,2.0,33.1828,11111222 
TABS,ioos:station:wmo:42050:1,2016-03-04T20:00:00Z,28.8425,-94.2433,2.0,33.1568,11111222 
TABS,ioos:station:wmo:42050:1,2016-03-04T20:30:00Z,28.8425,-94.2433,2.0,33.1591,11111222 
TABS,ioos:station:wmo:42050:1,2016-03-04T21:00:00Z,28.8425,-94.2433,2.0,33.1753,11111222 
TABS,ioos:station:wmo:42050:1,2016-03-04T21:30:00Z,28.8425,-94.2433,2.0,33.1874,11111222 
TABS,ioos:station:wmo:42050:1,2016-03-04T22:00:00Z,28.8425,-94.2433,2.0,33.2054,11111222 
TABS,ioos:station:wmo:42050:1,2016-03-04T22:30:00Z,28.8425,-94.2433,2.0,33.2129,11111222 
TABS,ioos:station:wmo:42050:1,2016-03-04T23:00:00Z,28.8425,-94.2433,2.0,33.2359,11111222 
TABS,ioos:station:wmo:42050:1,2016-03-04T23:30:00Z,28.8425,-94.2433,2.0,33.2491,11111222 
TABS,ioos:station:wmo:42050:1,2016-03-05T00:00:00Z,28.8425,-94.2433,2.0,33.2693,11111222 
TABS,ioos:station:wmo:42050:1,2016-03-05T00:30:00Z,28.8425,-94.2433,2.0,33.2877,11111222 
TABS,ioos:station:wmo:42050:1,2016-03-05T01:00:00Z,28.8425,-94.2433,2.0,33.3058,11111222 
TABS,ioos:station:wmo:42050:1,2016-03-05T01:30:00Z,28.8425,-94.2433,2.0,33.3286,11111222 
TABS,ioos:station:wmo:42050:1,2016-03-05T02:00:00Z,28.8425,-94.2433,2.0,33.3434,11111222 
TABS,ioos:station:wmo:42050:1,2016-03-05T02:30:00Z,28.8425,-94.2433,2.0,33.3538,11111222 
TABS,ioos:station:wmo:42050:1,2016-03-05T03:00:00Z,28.8425,-94.2433,2.0,33.3518,11111222 
TABS,ioos:station:wmo:42050:1,2016-03-05T03:30:00Z,28.8425,-94.2433,2.0,33.3394,11111222 
TABS,ioos:station:wmo:42050:1,2016-03-05T04:00:00Z,28.8425,-94.2433,2.0,33.3311,11111222 
TABS,ioos:station:wmo:42050:1,2016-03-05T04:30:00Z,28.8425,-94.2433,2.0,33.3172,11111222 
TABS,ioos:station:wmo:42050:1,2016-03-05T05:00:00Z,28.8425,-94.2433,2.0,33.3122,11111222 
TABS,ioos:station:wmo:42050:1,2016-03-05T05:30:00Z,28.8425,-94.2433,2.0,33.3148,11111222 
TABS,ioos:station:wmo:42050:1,2016-03-05T06:00:00Z,28.8425,-94.2433,2.0,33.3178,11111222 
TABS,ioos:station:wmo:42050:1,2016-03-05T06:30:00Z,28.8425,-94.2433,2.0,33.3199,11111222 
TABS,ioos:station:wmo:42050:1,2016-03-05T07:00:00Z,28.8425,-94.2433,2.0,33.325,11111222 
TABS,ioos:station:wmo:42050:1,2016-03-05T07:30:00Z,28.8425,-94.2433,2.0,33.3113,11111222 
TABS,ioos:station:wmo:42050:1,2016-03-05T08:00:00Z,28.8425,-94.2433,2.0,33.2927,11111222 
TABS,ioos:station:wmo:42050:1,2016-03-05T08:30:00Z,28.8425,-94.2433,2.0,33.2736,11111222 
TABS,ioos:station:wmo:42050:1,2016-03-05T09:00:00Z,28.8425,-94.2433,2.0,33.2478,11111222 
TABS,ioos:station:wmo:42050:1,2016-03-05T09:30:00Z,28.8425,-94.2433,2.0,33.2186,11111222 
TABS,ioos:station:wmo:42050:1,2016-03-05T10:00:00Z,28.8425,-94.2433,2.0,33.1805,11111222 
TABS,ioos:station:wmo:42050:1,2016-03-05T10:30:00Z,28.8425,-94.2433,2.0,33.1388,11111222 
TABS,ioos:station:wmo:42050:1,2016-03-05T11:00:00Z,28.8425,-94.2433,2.0,33.1058,11111222 
TABS,ioos:station:wmo:42050:1,2016-03-05T11:30:00Z,28.8425,-94.2433,2.0,33.067,11111222 
TABS,ioos:station:wmo:42050:1,2016-03-05T12:00:00Z,28.8425,-94.2433,2.0,33.0385,11111222 
TABS,ioos:station:wmo:42050:1,2016-03-05T12:30:00Z,28.8425,-94.2433,2.0,33.0121,11111222 
TABS,ioos:station:wmo:42050:1,2016-03-05T13:00:00Z,28.8425,-94.2433,2.0,32.9822,11111222 
TABS,ioos:station:wmo:42050:1,2016-03-05T13:30:00Z,28.8425,-94.2433,2.0,32.9675,11111222 
TABS,ioos:station:wmo:42050:1,2016-03-05T14:00:00Z,28.8425,-94.2433,2.0,32.9587,11111222 
TABS,ioos:station:wmo:42050:1,2016-03-05T14:30:00Z,28.8425,-94.2433,2.0,32.9534,11111222 
TABS,ioos:station:wmo:42050:1,2016-03-05T15:00:00Z,28.8425,-94.2433,2.0,32.932,11111222 
TABS,ioos:station:wmo:42050:1,2016-03-05T15:30:00Z,28.8425,-94.2433,2.0,32.9327,11111222 
TABS,ioos:station:wmo:42050:1,2016-03-05T16:00:00Z,28.8425,-94.2433,2.0,32.9209,11111222 
TABS,ioos:station:wmo:42050:1,2016-03-05T16:30:00Z,28.8425,-94.2433,2.0,32.9002,11111222 
TABS,ioos:station:wmo:42050:1,2016-03-05T17:00:00Z,28.8425,-94.2433,2.0,32.9082,11111222 
TABS,ioos:station:wmo:42050:1,2016-03-05T17:30:00Z,28.8425,-94.2433,2.0,32.9117,11111222 
TABS,ioos:station:wmo:42050:1,2016-03-05T18:00:00Z,28.8425,-94.2433,2.0,32.9024,11111222 
TABS,ioos:station:wmo:42050:1,2016-03-05T18:30:00Z,28.8425,-94.2433,2.0,32.9208,11111222 
TABS,ioos:station:wmo:42050:1,2016-03-05T19:00:00Z,28.8425,-94.2433,2.0,32.9347,11111222 
TABS,ioos:station:wmo:42050:1,2016-03-05T19:30:00Z,28.8425,-94.2433,2.0,32.9535,11111222 
TABS,ioos:station:wmo:42050:1,2016-03-05T20:00:00Z,28.8425,-94.2433,2.0,32.9549,11111222 
TABS,ioos:station:wmo:42050:1,2016-03-05T20:30:00Z,28.8425,-94.2433,2.0,32.9653,11111222 
TABS,ioos:station:wmo:42050:1,2016-03-05T21:00:00Z,28.8425,-94.2433,2.0,32.9756,11111222 
TABS,ioos:station:wmo:42050:1,2016-03-05T21:30:00Z,28.8425,-94.2433,2.0,32.985,11111222 
TABS,ioos:station:wmo:42050:1,2016-03-05T22:00:00Z,28.8425,-94.2433,2.0,32.984,11111222 
TABS,ioos:station:wmo:42050:1,2016-03-05T22:30:00Z,28.8425,-94.2433,2.0,32.9841,11111222 
TABS,ioos:station:wmo:42050:1,2016-03-05T23:00:00Z,28.8425,-94.2433,2.0,32.9823,11111222 
TABS,ioos:station:wmo:42050:1,2016-03-05T23:30:00Z,28.8425,-94.2433,2.0,32.9836,11111222 
TABS,ioos:station:wmo:42050:1,2016-03-06T00:00:00Z,28.8425,-94.2433,2.0,32.9868,11111222 
TABS,ioos:station:wmo:42050:1,2016-03-06T00:30:00Z,28.8425,-94.2433,2.0,32.9917,11111222 
TABS,ioos:station:wmo:42050:1,2016-03-06T01:00:00Z,28.8425,-94.2433,2.0,33.0004,11111222 
TABS,ioos:station:wmo:42050:1,2016-03-06T01:30:00Z,28.8425,-94.2433,2.0,33.0153,11111222 
TABS,ioos:station:wmo:42050:1,2016-03-06T02:00:00Z,28.8425,-94.2433,2.0,33.0224,11111222 
TABS,ioos:station:wmo:42050:1,2016-03-06T02:30:00Z,28.8425,-94.2433,2.0,33.0402,11111222 
TABS,ioos:station:wmo:42050:1,2016-03-06T03:00:00Z,28.8425,-94.2433,2.0,33.0629,11111222 
TABS,ioos:station:wmo:42050:1,2016-03-06T03:30:00Z,28.8425,-94.2433,2.0,33.0737,11111222 
TABS,ioos:station:wmo:42050:1,2016-03-06T04:00:00Z,28.8425,-94.2433,2.0,33.0982,11111222 
TABS,ioos:station:wmo:42050:1,2016-03-06T04:30:00Z,28.8425,-94.2433,2.0,33.109,11111222 
TABS,ioos:station:wmo:42050:1,2016-03-06T05:00:00Z,28.8425,-94.2433,2.0,33.1234,11111222 
TABS,ioos:station:wmo:42050:1,2016-03-06T05:30:00Z,28.8425,-94.2433,2.0,33.1222,11111222 
TABS,ioos:station:wmo:42050:1,2016-03-06T06:00:00Z,28.8425,-94.2433,2.0,33.1229,11111222 
TABS,ioos:station:wmo:42050:1,2016-03-06T06:30:00Z,28.8425,-94.2433,2.0,33.1192,11111222 
TABS,ioos:station:wmo:42050:1,2016-03-06T07:00:00Z,28.8425,-94.2433,2.0,33.1043,11111222 
TABS,ioos:station:wmo:42050:1,2016-03-06T07:30:00Z,28.8425,-94.2433,2.0,33.0753,11111222 
TABS,ioos:station:wmo:42050:1,2016-03-06T08:00:00Z,28.8425,-94.2433,2.0,33.0421,11111222 
TABS,ioos:station:wmo:42050:1,2016-03-06T08:30:00Z,28.8425,-94.2433,2.0,33.0245,11111222 
TABS,ioos:station:wmo:42050:1,2016-03-06T09:00:00Z,28.8425,-94.2433,2.0,33.018,11111222 
TABS,ioos:station:wmo:42050:1,2016-03-06T09:30:00Z,28.8425,-94.2433,2.0,33.0068,11111222 
TABS,ioos:station:wmo:42050:1,2016-03-06T10:00:00Z,28.8425,-94.2433,2.0,32.975,11111222 
TABS,ioos:station:wmo:42050:1,2016-03-06T10:30:00Z,28.8425,-94.2433,2.0,32.9538,11111222 
TABS,ioos:station:wmo:42050:1,2016-03-06T11:00:00Z,28.8425,-94.2433,2.0,32.9372,11111222 
TABS,ioos:station:wmo:42050:1,2016-03-06T11:30:00Z,28.8425,-94.2433,2.0,32.9219,11111222 
TABS,ioos:station:wmo:42050:1,2016-03-06T12:00:00Z,28.8425,-94.2433,2.0,32.913,11111222 
TABS,ioos:station:wmo:42050:1,2016-03-06T12:30:00Z,28.8425,-94.2433,2.0,32.9211,11111222 